When you browse on this site, cookies collect data to enhance your experience and personalize the content and advertising you see.
Visit our Privacy Policy to learn more. By continuing to use the site, you agree to this use of cookies and data.
  • In Deutschland
  • Länderverzeichnis
  • Für 7 Tage
  • Wassertemperatur
  • Satellitenkarten
  • Wetterkarte
  • Widgets
  • user-avatar
    Anmelden

    Stündliche Wetter Luanda

    Heute, 25 April, Donnerstag

    Zeit Temperatur Niederschläge Wind Luftdruck Luftfeuchtigkeit
    00:00 +28°C° 0 mm 2 m/S 754 mmHg 89%
    01:00 +28°C° 0 mm 3 m/S 754 mmHg 89%
    02:00 +28°C° 0 mm 3 m/S 754 mmHg 89%
    03:00 +28°C° 0 mm 2 m/S 754 mmHg 89%
    04:00 +28°C° 0 mm 2 m/S 754 mmHg 89%
    05:00 +28°C° 0 mm 2 m/S 754 mmHg 90%
    06:00 +27°C° 0 mm 2 m/S 754 mmHg 90%
    07:00 +28°C° 0 mm 2 m/S 754 mmHg 90%
    08:00 +28°C° 0 mm 2 m/S 754 mmHg 88%
    09:00 +29°C° 0 mm 1 m/S 755 mmHg 85%
    10:00 +29°C° 0 mm 1 m/S 755 mmHg 82%
    11:00 +30°C° 0 mm 2 m/S 754 mmHg 76%
    12:00 +32°C° 0 mm 2 m/S 753 mmHg 69%
    13:00 +34°C° 0 mm 3 m/S 753 mmHg 62%
    14:00 +34°C° 0 mm 3 m/S 752 mmHg 63%
    15:00 +34°C° 0 mm 4 m/S 752 mmHg 64%
    16:00 +33°C° 0 mm 4 m/S 752 mmHg 65%
    17:00 +32°C° 0 mm 4 m/S 752 mmHg 69%
    18:00 +30°C° 0 mm 4 m/S 752 mmHg 74%
    19:00 +28°C° 0 mm 4 m/S 752 mmHg 79%
    20:00 +28°C° 0 mm 4 m/S 753 mmHg 79%
    21:00 +28°C° 0 mm 4 m/S 753 mmHg 80%
    22:00 +28°C° 0 mm 3 m/S 754 mmHg 80%
    23:00 +28°C° 0 mm 3 m/S 754 mmHg 82%

    Morgen, 26 April, Freitag

    Zeit Temperatur Niederschläge Wind Luftdruck Luftfeuchtigkeit
    00:00 +27°C° 0 mm 3 m/S 753 mmHg 83%
    01:00 +27°C° 0 mm 3 m/S 753 mmHg 84%
    02:00 +27°C° 0 mm 3 m/S 753 mmHg 85%
    03:00 +27°C° 0 mm 3 m/S 753 mmHg 86%
    04:00 +27°C° 0 mm 3 m/S 752 mmHg 88%
    05:00 +27°C° 0 mm 3 m/S 752 mmHg 88%
    06:00 +27°C° 0 mm 3 m/S 752 mmHg 88%
    07:00 +26°C° 0 mm 3 m/S 752 mmHg 88%
    08:00 +28°C° 0 mm 2 m/S 753 mmHg 81%
    09:00 +30°C° 0 mm 2 m/S 753 mmHg 74%
    10:00 +31°C° 0 mm 1 m/S 753 mmHg 67%
    11:00 +34°C° 0 mm 2 m/S 752 mmHg 62%
    12:00 +35°C° 0 mm 2 m/S 752 mmHg 57%
    13:00 +37°C° 0 mm 3 m/S 751 mmHg 52%
    14:00 +36°C° 0 mm 4 m/S 751 mmHg 56%
    15:00 +35°C° 0 mm 4 m/S 751 mmHg 61%
    16:00 +34°C° 0 mm 5 m/S 750 mmHg 66%
    17:00 +32°C° 0 mm 5 m/S 751 mmHg 71%
    18:00 +30°C° 0 mm 4 m/S 751 mmHg 75%
    19:00 +29°C° 0 mm 4 m/S 751 mmHg 80%
    20:00 +29°C° 0.2 mm 3 m/S 752 mmHg 82%
    21:00 +28°C° 0.2 mm 3 m/S 752 mmHg 83%
    22:00 +28°C° 0.2 mm 3 m/S 753 mmHg 85%
    23:00 +28°C° 0.1 mm 2 m/S 752 mmHg 86%

    übermorgen, 27 April, Samstag

    Zeit Temperatur Niederschläge Wind Luftdruck Luftfeuchtigkeit
    00:00 +28°C° 0.1 mm 2 m/S 752 mmHg 86%
    01:00 +28°C° 0.1 mm 1 m/S 752 mmHg 87%
    02:00 +28°C° 0 mm 2 m/S 752 mmHg 87%
    03:00 +27°C° 0 mm 2 m/S 751 mmHg 88%
    04:00 +27°C° 0 mm 2 m/S 751 mmHg 88%
    05:00 +27°C° 0 mm 2 m/S 752 mmHg 89%
    06:00 +27°C° 0 mm 2 m/S 752 mmHg 89%
    07:00 +27°C° 0 mm 3 m/S 752 mmHg 89%
    08:00 +28°C° 0 mm 3 m/S 753 mmHg 83%
    09:00 +30°C° 0 mm 2 m/S 753 mmHg 76%
    10:00 +31°C° 0 mm 2 m/S 753 mmHg 70%
    11:00 +34°C° 0 mm 2 m/S 752 mmHg 64%
    12:00 +35°C° 0 mm 2 m/S 752 mmHg 58%
    13:00 +37°C° 0 mm 2 m/S 751 mmHg 53%
    14:00 +36°C° 0 mm 3 m/S 750 mmHg 56%
    15:00 +35°C° 0 mm 4 m/S 750 mmHg 59%
    16:00 +35°C° 0 mm 5 m/S 749 mmHg 63%
    17:00 +33°C° 0.5 mm 5 m/S 750 mmHg 71%
    18:00 +30°C° 0.5 mm 4 m/S 750 mmHg 78%
    19:00 +28°C° 0.5 mm 3 m/S 751 mmHg 86%
    20:00 +28°C° 0.6 mm 3 m/S 751 mmHg 87%
    21:00 +28°C° 0.6 mm 3 m/S 752 mmHg 88%
    22:00 +28°C° 0.6 mm 3 m/S 752 mmHg 89%
    23:00 +27°C° 0.2 mm 3 m/S 752 mmHg 89%

    28 April, Sonntag

    Zeit Temperatur Niederschläge Wind Luftdruck Luftfeuchtigkeit
    00:00 +27°C° 0.2 mm 3 m/S 752 mmHg 89%
    01:00 +27°C° 0.2 mm 2 m/S 752 mmHg 89%
    02:00 +27°C° 0 mm 2 m/S 752 mmHg 90%
    03:00 +27°C° 0 mm 3 m/S 751 mmHg 90%
    04:00 +27°C° 0 mm 3 m/S 751 mmHg 91%
    05:00 +27°C° 0.2 mm 3 m/S 751 mmHg 90%
    06:00 +27°C° 0.2 mm 3 m/S 752 mmHg 89%
    07:00 +27°C° 0.2 mm 3 m/S 752 mmHg 89%
    08:00 +28°C° 0 mm 3 m/S 752 mmHg 81%
    09:00 +30°C° 0 mm 2 m/S 753 mmHg 73%
    10:00 +32°C° 0 mm 2 m/S 753 mmHg 65%
    11:00 +34°C° 0 mm 2 m/S 752 mmHg 61%
    12:00 +35°C° 0 mm 3 m/S 751 mmHg 58%
    13:00 +37°C° 0 mm 4 m/S 750 mmHg 55%
    14:00 +35°C° 0.3 mm 4 m/S 750 mmHg 59%
    15:00 +34°C° 0.3 mm 5 m/S 750 mmHg 64%
    16:00 +33°C° 0.3 mm 6 m/S 750 mmHg 68%
    17:00 +32°C° 3 mm 5 m/S 750 mmHg 75%
    18:00 +29°C° 3 mm 4 m/S 751 mmHg 82%
    19:00 +28°C° 3 mm 3 m/S 752 mmHg 89%
    20:00 +28°C° 0.4 mm 3 m/S 752 mmHg 89%
    21:00 +28°C° 0.4 mm 3 m/S 753 mmHg 89%
    22:00 +28°C° 0.4 mm 3 m/S 753 mmHg 89%
    23:00 +28°C° 0 mm 2 m/S 753 mmHg 90%

    29 April, Montag

    Zeit Temperatur Niederschläge Wind Luftdruck Luftfeuchtigkeit
    00:00 +28°C° 0 mm 1 m/S 753 mmHg 90%
    01:00 +28°C° 0 mm 1 m/S 753 mmHg 91%
    02:00 +27°C° 0 mm 1 m/S 752 mmHg 91%
    03:00 +27°C° 0 mm 1 m/S 752 mmHg 92%
    04:00 +27°C° 0 mm 1 m/S 752 mmHg 92%
    05:00 +27°C° 0 mm 1 m/S 752 mmHg 92%
    06:00 +27°C° 0 mm 1 m/S 753 mmHg 92%
    07:00 +27°C° 0 mm 2 m/S 753 mmHg 91%
    08:00 +29°C° 0 mm 1 m/S 754 mmHg 85%
    09:00 +30°C° 0 mm 1 m/S 754 mmHg 79%
    10:00 +29°C° 0 mm 0 m/S 754 mmHg 72%
    11:00 +32°C° 0 mm 1 m/S 753 mmHg 67%
    12:00 +34°C° 0 mm 2 m/S 752 mmHg 62%
    13:00 +35°C° 0 mm 2 m/S 752 mmHg 57%
    14:00 +35°C° 0 mm 3 m/S 751 mmHg 61%
    15:00 +34°C° 0 mm 4 m/S 751 mmHg 65%
    16:00 +33°C° 0 mm 5 m/S 750 mmHg 69%
    17:00 +32°C° 0 mm 4 m/S 751 mmHg 73%
    18:00 +30°C° 0 mm 4 m/S 751 mmHg 77%
    19:00 +29°C° 0 mm 4 m/S 752 mmHg 81%
    20:00 +29°C° 0 mm 3 m/S 752 mmHg 82%
    21:00 +28°C° 0 mm 3 m/S 753 mmHg 82%
    22:00 +28°C° 0 mm 2 m/S 753 mmHg 82%
    23:00 +28°C° 0 mm 2 m/S 753 mmHg 83%

    30 April, Dienstag

    Zeit Temperatur Niederschläge Wind Luftdruck Luftfeuchtigkeit
    00:00 +28°C° 0 mm 3 m/S 753 mmHg 84%
    01:00 +28°C° 0 mm 3 m/S 753 mmHg 85%
    02:00 +28°C° 0 mm 3 m/S 753 mmHg 86%
    03:00 +27°C° 0 mm 3 m/S 753 mmHg 87%
    04:00 +27°C° 0 mm 3 m/S 752 mmHg 89%
    05:00 +27°C° 0 mm 3 m/S 753 mmHg 89%
    06:00 +27°C° 0 mm 3 m/S 753 mmHg 89%
    07:00 +27°C° 0 mm 3 m/S 754 mmHg 89%
    08:00 +29°C° 0 mm 2 m/S 754 mmHg 82%
    09:00 +30°C° 0 mm 1 m/S 754 mmHg 75%
    10:00 +32°C° 0 mm 1 m/S 754 mmHg 68%
    11:00 +33°C° 0 mm 1 m/S 753 mmHg 64%
    12:00 +35°C° 0 mm 2 m/S 753 mmHg 61%
    13:00 +36°C° 0 mm 3 m/S 752 mmHg 57%
    14:00 +35°C° 0 mm 4 m/S 751 mmHg 61%
    15:00 +34°C° 0 mm 4 m/S 751 mmHg 65%
    16:00 +33°C° 0 mm 5 m/S 751 mmHg 69%
    17:00 +32°C° 0.1 mm 4 m/S 751 mmHg 75%
    18:00 +30°C° 0.1 mm 4 m/S 752 mmHg 80%
    19:00 +28°C° 0.1 mm 3 m/S 752 mmHg 86%
    20:00 +28°C° 0 mm 3 m/S 753 mmHg 86%
    21:00 +28°C° 0 mm 3 m/S 753 mmHg 87%
    22:00 +28°C° 0 mm 2 m/S 753 mmHg 88%
    23:00 +28°C° 0 mm 2 m/S 753 mmHg 88%
    Mehr zeigen